Location: �quirre
(50.4736°N, 2.2351°E)
Time: 10:02:09
(UTC+00:00)

Cosmos 1025 Rocket - Pass Details

Date: 07 August 2020
Orbit: 594 x 618 km, 82.5° (Epoch: 20 September)

Event Time Altitude Azimuth Distance (km) Brightness Sun altitude
Rises 01:29:25 0° 344° (NNW) 2,855 7.3 -20.2°
Reaches altitude 10° 01:31:43 10° 337° (NNW) 1,945 6.2 -20.0°
Maximum altitude 01:35:45 41° 267° (W) 864 3.5 -19.8°
Enters shadow 01:36:11 40° 251° (WSW) 884 3.5 -19.7°
